This is the latest recevied weather packets stored in our database for station/object K1BES. If no packets are shown the sender has not sent any weather packets the latest 10 day(s).
| Time | Temp. | Humidity | Pressure | Rain* | Wind** | Luminosity | Snow |
|---|---|---|---|---|---|---|---|
| 1777394136 | 30.56° C | 55% | 1021.4 hPa | 0 mm | - | 1008 W/m² | - |
| 1777393832 | 30.56° C | 49% | 1021.4 hPa | 0 mm | - | 1030 W/m² | - |
| 1777393531 | 31.11° C | 48% | 1021.4 hPa | 0 mm | - | 257 W/m² | - |
| 1777393226 | 31.11° C | 49% | 1021.6 hPa | 0 mm | - | 975 W/m² | - |
| 1777392924 | 30.56° C | 49% | 1021.4 hPa | 0 mm | - | 962 W/m² | - |
| 1777392624 | 30.56° C | 47% | 1021.4 hPa | 0 mm | - | 949 W/m² | - |
| 1777392321 | 30.56° C | 47% | 1021.5 hPa | 0 mm | - | 942 W/m² | - |
| 1777392015 | 30.56° C | 51% | 1021.6 hPa | 0 mm | - | 931 W/m² | - |
| 1777391710 | 30.56° C | 50% | 1021.7 hPa | 0 mm | - | 922 W/m² | - |
| 1777391408 | 30° C | 51% | 1021.5 hPa | 0 mm | - | 908 W/m² | - |
| 1777391104 | 30° C | 51% | 1021.3 hPa | 0 mm | - | 896 W/m² | - |
| 1777390799 | 30° C | 51% | 1021.5 hPa | 0 mm | - | 881 W/m² | - |
| 1777390496 | 30.56° C | 53% | 1021.4 hPa | 0 mm | - | 866 W/m² | - |
| 1777390193 | 30.56° C | 51% | 1021.5 hPa | 0 mm | - | 854 W/m² | - |
| 1777389889 | 30° C | 54% | 1021.5 hPa | 0 mm | - | 839 W/m² | - |
| 1777389586 | 30° C | 54% | 1021.5 hPa | 0 mm | - | 822 W/m² | - |
| 1777389283 | 29.44° C | 56% | 1021.3 hPa | 0 mm | - | 807 W/m² | - |
| 1777388981 | 28.89° C | 58% | 1021.6 hPa | 0 mm | - | 791 W/m² | - |
| 1777388678 | 28.89° C | 60% | 1021.7 hPa | 0 mm | - | 778 W/m² | - |
| 1777388374 | 28.89° C | 59% | 1021.5 hPa | 0 mm | - | 760 W/m² | - |
| 1777388074 | 28.89° C | 58% | 1021.5 hPa | 0 mm | - | 736 W/m² | - |
| 1777387771 | 28.89° C | 60% | 1021.5 hPa | 0 mm | - | 725 W/m² | - |
| 1777387467 | 28.89° C | 58% | 1021.3 hPa | 0 mm | - | 706 W/m² | - |
| 1777387162 | 28.33° C | 61% | 1021.5 hPa | 0 mm | - | 685 W/m² | - |
| 1777386858 | 27.78° C | 64% | 1021.6 hPa | 0 mm | - | 669 W/m² | - |
* Rain latest hour (hover to see other rain measurements)
** Current wind speed in m/s (hover to see current wind gust speed)